Regional Weather Roundup
Issued by NWS

Home | Current Version | Previous Version | Text Only | Print | Product List | Glossary Off
Versions: 1 2 3 4 5 6 7 8 9 10 11 12 13 14 15 16 17 18 19 20 21 22 23 24 25 26 27 28 29 30 31 32 33 34 35 36 37 38 39 40 41 42 43 44 45 46 47 48 49 50

000
ASUS45 KBOI 310110
RWRID

IDAHO REGIONAL WEATHER ROUNDUP
NATIONAL WEATHER SERVICE BOISE ID
700 PM MDT THU JUL 30 2015

NOTE: "FAIR" INDICATES FEW OR NO CLOUDS BELOW 12000 FEET
WITH NO SIGNIFICANT WEATHER AND/OR OBSTRUCTIONS TO VISIBILITY

IDZ012-014-310200-
SOUTHWEST IDAHO


CITY           SKY/WX    TMP DP  RH WIND       PRES   REMARKS
BOISE          SUNNY     93  34  12 VRB5      30.12F
CALDWELL       SUNNY     93  37  14 CALM      30.11F
MOUNTAIN HOME  SUNNY     95  26   8 NW12      30.11F
$$

IDZ016-017-310200-
SOUTHCENTRAL IDAHO


CITY           SKY/WX    TMP DP  RH WIND       PRES   REMARKS
BURLEY         FAIR      87  38  17 W12       30.19F
JEROME         SUNNY     88  33  14 W7        30.20F
TWIN FALLS     FAIR      90  30  11 NW7       30.19F
$$

IDZ019>023-310200-
SOUTHEAST IDAHO


CITY           SKY/WX    TMP DP  RH WIND       PRES   REMARKS
IDAHO FALLS    SUNNY     86  32  14 SE6       30.26F
POCATELLO      SUNNY     89  25  10 E9        30.24F
REXBURG        SUNNY     85  24  11 NW3       30.28F
$$

IDZ006-010-011-018-031-032-310200-
CENTRAL IDAHO MOUNTAINS


CITY           SKY/WX    TMP DP  RH WIND       PRES   REMARKS
MCCALL         SUNNY     84  31  14 S6        30.26F
HAILEY         SUNNY     84  34  16 S6        30.28F
STANLEY          N/A     82  22  11 N5        30.36F
SALMON         SUNNY     86  45  23 NW3       30.15F
CHALLIS        SUNNY     88  27  11 N3        30.23F
$$

IDZ002-004-006-007-026-310200-
NORTHERN IDAHO


CITY           SKY/WX    TMP DP  RH WIND       PRES   REMARKS
LEWISTON       SUNNY    101  31   8 N6        30.00F HX  94
LOWELL           N/A     84  45  25 CALM      30.02S
COEUR D`ALENE  FAIR      93  34  12 W10       30.07F
MULLAN PASS    SUNNY     77  31  18 VRB3      30.36F
$$



USA.gov is the U.S. government's official web portal to all federal, state and local government web resources and services.